Mosby, MO

12:21 AM CST on December 06, 2019 (GMT -0600)
Clay County Regional

Weather History for KGPH - October, 2019

Change the Weather History Date:

Monday, October 7, 2019

  Actual Average (WUND) Record (WUND)
Temperature  
Mean Temperature 54 °F -  
Max Temperature 68 °F - - (-1)
Min Temperature 39 °F - - (-1)
Degree Days  
Heating Degree Days 12    
Growing Degree Days 4 (Base 50)    
Moisture  
Dew Point -12 °F    
Average Humidity 9    
Maximum Humidity 12    
Minimum Humidity 4    
Precipitation  
Precipitation 0.00 in - - ()
Sea Level Pressure  
Sea Level Pressure 30.25 in    
Wind  
Wind Speed 0 mph ()    
Max Wind Speed 0 mph    
Max Gust Speed -    
Visibility 7.7 miles    
Events      
Averages and records for this station are not official NWS values.
T = Trace of Precipitation, MM = Missing Value Source: Averaged Metar Reports

Daily Weather History Graph

Daily Weather History Graph

Search for Another Location

Airport or City:

Astronomy

Oct. 07, 2019 Rise Set
Actual Time 7:18 AM CDT 6:50 PM CDT
Civil Twilight 6:52 AM CDT 7:17 PM CDT
Nautical Twilight 6:21 AM CDT 7:48 PM CDT
Astronomical Twilight 5:49 AM CDT 8:19 PM CDT
Moon 4:10 PM CDT (10/7) 1:15 AM CDT (10/7)
Length of Visible Light 12h 25m
Length of Day
11h 31m
Waxing Gibbous, 69% of the Moon is Illuminated
Oct 7
Waxing Gibbous
Oct 13
Full
Oct 21
Last Quarter
Oct 27
New
Nov 4
First Quarter

Hourly Weather History & Observations

Time (CDT) Temp. Dew Point Humidity Pressure Visibility Wind Dir Wind Speed Gust Speed Precip Events Conditions
12:15 AM 46.4 °F -7.6 °F 10% 30.27 in 2.5 mi Calm Calm - N/A   Haze
12:35 AM 46.4 °F -9.4 °F 9% 30.27 in 2.5 mi Calm Calm - N/A   Haze
12:55 AM 44.6 °F -11.2 °F 9% 30.27 in 0.8 mi Calm Calm - N/A   Haze
1:15 AM 44.6 °F -13.0 °F 9% 30.28 in 0.5 mi Calm Calm - N/A   Haze
1:35 AM 44.6 °F -11.2 °F 9% 30.27 in 1.0 mi Calm Calm - N/A   Haze
1:55 AM 44.6 °F -11.2 °F 9% 30.27 in 0.5 mi Calm Calm - N/A   Haze
2:15 AM 44.6 °F -13.0 °F 9% 30.27 in 0.2 mi Calm Calm - N/A   Haze
2:55 AM 42.8 °F -11.2 °F 10% 30.27 in 0.2 mi Calm Calm - N/A   Haze
3:15 AM 42.8 °F -9.4 °F 11% 30.27 in 2.5 mi Calm Calm - N/A   Haze
3:35 AM 42.8 °F -11.2 °F 10% 30.27 in 1.8 mi Calm Calm - N/A   Haze
3:55 AM 42.8 °F -9.4 °F 11% 30.26 in 0.2 mi Calm Calm - N/A   Haze
4:15 AM 41.0 °F -9.4 °F 12% 30.26 in 7.0 mi Calm Calm - N/A   Mostly Cloudy
4:35 AM 41.0 °F -11.2 °F 11% 30.27 in 10.0 mi Calm Calm - N/A   Scattered Clouds
4:55 AM 41.0 °F -13.0 °F 10% 30.27 in 7.0 mi Calm Calm - N/A   Scattered Clouds
5:15 AM 41.0 °F -13.0 °F 10% 30.27 in 10.0 mi Calm Calm - N/A   Clear
5:35 AM 41.0 °F -13.0 °F 10% 30.27 in 10.0 mi Calm Calm - N/A   Scattered Clouds
5:55 AM 41.0 °F -13.0 °F 10% 30.27 in 10.0 mi Calm Calm - N/A   Scattered Clouds
6:15 AM 41.0 °F -13.0 °F 10% 30.28 in 10.0 mi Calm Calm - N/A   Mostly Cloudy
6:35 AM 41.0 °F -13.0 °F 10% 30.28 in 2.0 mi Calm Calm - N/A   Haze
6:55 AM 41.0 °F -11.2 °F 11% 30.28 in 10.0 mi Calm Calm - N/A   Scattered Clouds
7:15 AM 39.2 °F -13.0 °F 10% 30.29 in 5.0 mi Calm Calm - N/A   Haze
7:35 AM 39.2 °F -13.0 °F 10% 30.29 in 5.0 mi Calm Calm - N/A   Haze
7:55 AM 39.2 °F -13.0 °F 10% 30.29 in 0.2 mi Calm Calm - N/A   Haze
8:15 AM 39.2 °F -13.0 °F 10% 30.29 in 2.0 mi Calm Calm - N/A   Haze
9:35 AM 46.4 °F -5.8 °F 11% 30.30 in 10.0 mi Calm Calm - N/A   Scattered Clouds
9:55 AM 48.2 °F -5.8 °F 10% 30.30 in 10.0 mi Calm Calm - N/A   Clear
10:15 AM 50.0 °F -4.0 °F 11% 30.30 in 10.0 mi Calm Calm - N/A   Clear
10:35 AM 53.6 °F -4.0 °F 9% 30.31 in 10.0 mi Calm Calm - N/A   Clear
10:55 AM 57.2 °F -11.2 °F 6% 30.31 in 10.0 mi Calm Calm - N/A   Clear
11:15 AM 60.8 °F -13.0 °F 5% 30.31 in 10.0 mi Calm Calm - N/A   Clear
11:55 AM 64.4 °F -18.4 °F 4% 30.31 in 10.0 mi Calm Calm - N/A   Clear
12:15 PM 68.0 °F -27.4 °F 4% 30.31 in 10.0 mi Calm Calm - N/A   Clear
12:35 PM 68.0 °F -31.0 °F 4% 30.30 in 10.0 mi Calm Calm - N/A   Clear
12:55 PM - - N/A% 30.30 in 10.0 mi Calm Calm - N/A   Clear
1:15 PM - - N/A% 30.29 in 10.0 mi Calm Calm - N/A   Clear
1:35 PM - - N/A% 30.29 in 10.0 mi Calm Calm - N/A   Clear
1:55 PM - - N/A% 30.27 in 10.0 mi Calm Calm - N/A   Clear
2:15 PM - - N/A% 30.27 in 10.0 mi Calm Calm - N/A   Clear
2:35 PM - - N/A% 30.26 in 10.0 mi Calm Calm - N/A   Clear
2:55 PM - - N/A% 30.25 in 10.0 mi Calm Calm - N/A   Clear
3:15 PM - - N/A% 30.24 in 10.0 mi Calm Calm - N/A   Clear
3:35 PM - - N/A% 30.23 in 10.0 mi Calm Calm - N/A   Clear
3:55 PM - - N/A% 30.23 in 10.0 mi Calm Calm - N/A   Clear
4:15 PM - - N/A% 30.23 in 10.0 mi Calm Calm - N/A   Clear
4:35 PM - - N/A% 30.22 in 10.0 mi Calm Calm - N/A   Clear
5:15 PM - - N/A% 30.22 in 10.0 mi Calm Calm - N/A   Clear
5:35 PM - - N/A% 30.21 in 10.0 mi Calm Calm - N/A   Clear
5:55 PM - - N/A% 30.21 in 10.0 mi Calm Calm - N/A   Clear
6:15 PM - - N/A% 30.20 in 10.0 mi Calm Calm - N/A   Clear
6:35 PM - - N/A% 30.20 in 10.0 mi Calm Calm - N/A   Clear
6:55 PM - - N/A% 30.20 in 10.0 mi Calm Calm - N/A   Clear
7:35 PM 59.0 °F -22.0 °F 4% 30.20 in 10.0 mi Calm Calm - N/A   Clear
7:55 PM 59.0 °F -22.0 °F 4% 30.19 in 10.0 mi Calm Calm - N/A   Clear
8:15 PM 55.4 °F -16.6 °F 5% 30.19 in 10.0 mi Calm Calm - N/A   Clear
8:35 PM 53.6 °F -14.8 °F 6% 30.19 in 10.0 mi Calm Calm - N/A   Clear
9:15 PM 51.8 °F -7.6 °F 8% 30.19 in 10.0 mi Calm Calm - N/A   Clear
9:35 PM 51.8 °F -7.6 °F 8% 30.20 in 10.0 mi Calm Calm - N/A   Clear
9:55 PM 50.0 °F -7.6 °F 9% 30.20 in 10.0 mi Calm Calm - N/A   Clear
10:15 PM 50.0 °F -5.8 °F 10% 30.20 in 10.0 mi Calm Calm - N/A   Clear
10:55 PM 48.2 °F -11.2 °F 8% 30.20 in 10.0 mi Calm Calm - N/A   Clear
11:15 PM 48.2 °F -7.6 °F 10% 30.21 in 10.0 mi Calm Calm - N/A   Scattered Clouds
11:35 PM 46.4 °F -7.6 °F 10% 30.20 in 10.0 mi Calm Calm - N/A   Scattered Clouds
11:55 PM 46.4 °F -7.6 °F 10% 30.20 in 3.0 mi Calm Calm - N/A   Haze